Location: Airlie Beach - Cannonvale QLD, Australia
(20.2768°S, 148.7558°E)
Time: 19:51:25
(UTC+10:00)

Hubble Space Telescope - Pass Details

Date: 04 April 2023
Orbit: 525 x 528 km, 28.5° (Epoch: 03 June)

Event Time Altitude Azimuth Distance (km) Brightness Sun altitude
Exits shadow 04:01:51 22° 80° (E) 1,196 3.1 -31.5°
Drops below altitude 10° 04:03:33 10° 95° (E) 1,764 4.3 -31.1°
Sets 04:05:55 0° 103° (ESE) 2,655 5.5 -30.5°
